CW4541 Weather Reports


Display with metric or nautical units.
time (UTC)temp
F
wind
direction
speed
MPH
gust
MPH
rain 1hr
in
rain 24hr
in
rain mn
in
humidity
%
barometer
mb
20260503070605 41 0 0.0 1.0 0.00 0.00 0.00 25 1027.1
20260503070111 41 0 0.0 1.0 0.00 0.00 0.00 25 1027.0
20260503060113 39 0 0.0 0.0 0.00 0.00 0.00 26 1027.1
20260503050608 39 0 0.0 0.0 0.00 0.00 0.00 26 1027.1
20260503050112 39 0 0.0 0.0 0.00 0.00 0.00 27 1027.1
20260503040607 42 0 0.0 0.0 0.00 0.00 0.00 25 1027.1
20260503040112 42 0 0.0 0.0 0.00 0.00 0.00 24 1027.1
20260503030608 46 0 0.0 0.0 0.00 0.00 0.00 20 1026.3
20260503030113 46 0 0.0 0.0 0.00 0.00 0.00 20 1026.2
20260503020607 53 0 0.0 1.0 0.00 0.00 0.00 15 1025.3
20260503020114 54 0 0.0 1.0 0.00 0.00 0.00 15 1025.3
20260503010607 63 0 0.0 1.0 0.00 0.00 0.00 9 1025.1
20260503010113 63 0 0.0 2.0 0.00 0.00 0.00 9 1025.2
20260503000607 65 0 1.0 6.0 0.00 0.00 0.00 8 1025.9
20260502230607 65 0 0.0 10.0 0.00 0.00 0.00 9 1026.1
20260502230112 65 0 3.0 10.0 0.00 0.00 0.00 9 1026.2
20260502220607 64 0 1.0 5.0 0.00 0.00 0.00 10 1026.9
20260502220112 64 0 0.0 5.0 0.00 0.00 0.00 8 1026.9
20260502210606 64 0 0.0 7.0 0.00 0.00 0.00 10 1028.3
20260502210112 64 0 2.0 7.0 0.00 0.00 0.00 12 1028.3
20260502200112 63 0 2.0 7.0 0.00 0.00 0.00 12 1028.7
20260502190614 59 0 3.0 12.0 0.00 0.00 0.00 15 1029.2
20260502190111 61 0 2.0 12.0 0.00 0.00 0.00 13 1029.3
20260502180607 60 0 2.0 8.0 0.00 0.00 0.00 17 1030.4
20260502180111 60 0 1.0 6.0 0.00 0.00 0.00 17 1030.3
20260502170111 58 0 1.0 9.0 0.00 0.00 0.00 20 1030.5
20260502160607 55 0 4.0 10.0 0.00 0.00 0.00 26 1030.8
20260502160111 54 0 3.0 13.0 0.00 0.00 0.00 26 1030.8
20260502150607 50 0 3.0 10.0 0.00 0.00 0.00 32 1030.8
20260502150111 50 0 5.0 10.0 0.00 0.00 0.00 32 1030.8
20260502140112 45 0 3.0 10.0 0.00 0.00 0.00 43 1030.8
20260502120606 37 0 0.0 6.0 0.00 0.00 0.00 53 1029.9
20260502120112 37 0 1.0 6.0 0.00 0.00 0.00 52 1029.9
20260502110606 37 0 1.0 5.0 0.00 0.00 0.00 51 1030.4
20260502100607 37 0 1.0 5.0 0.00 0.00 0.00 48 1030.1
20260502100111 38 0 1.0 5.0 0.00 0.00 0.00 48 1030.1
20260502090607 35 0 0.0 2.0 0.00 0.00 0.00 38 1030.0
20260502090111 35 0 0.0 0.0 0.00 0.00 0.00 38 1029.8